Regional Weather Roundup
Issued by NWS

Home | Current Version | Previous Version | Graphics & Text | Print | Product List | Glossary On
Versions: 1 2 3 4 5 6 7 8 9 10 11 12 13 14 15 16 17 18 19 20 21 22 23 24 25 26 27 28 29 30 31 32 33 34 35 36 37 38 39 40 41 42 43 44 45 46 47 48 49 50
000
ASUS43 KLSX 172307
RWRMO

WEATHER SUMMARY FOR MISSOURI
NATIONAL WEATHER SERVICE SPRINGFIELD MO
600 PM CDT THU AUG 17 2017

NOTE: "FAIR" INDICATES FEW OR NO CLOUDS BELOW 12,000 FEET WITH NO
       SIGNIFICANT WEATHER AND/OR OBSTRUCTIONS TO VISIBILITY.
       CURRENT SKY AND/OR WEATHER CONDITIONS ARE NOT AVAILABLE FOR
       CHILLICOTHE AND FARMINGTON.

MOZ001>031-035>038-043-044-053-054-180000-
...NORTHERN AND WESTERN MISSOURI...

CITY           SKY/WX    TMP DP  RH WIND       PRES   REMARKS
KANSAS CTY INT SUNNY     83  63  50 W6        29.93F
KANSAS C DTWN  SUNNY     84  62  47 W7        29.92S
LEE`S SUMMIT   SUNNY     82  61  48 W8        29.94F
ST JOSEPH      SUNNY     83  62  49 NW9       29.92F
CHILLICOTHE      N/A     83  59  44 VRB7G18   29.90F
KIRKSVILLE     SUNNY     83  60  45 W13G22    29.87S

$$
MOZ066>068-077>081-088>096-101>105-180000-
...SOUTHWEST MISSOURI...

CITY           SKY/WX    TMP DP  RH WIND       PRES   REMARKS
SPRINGFIELD    SUNNY     83  67  58 NW9       29.96S
JOPLIN         SUNNY     85  67  54 NW8       29.97F
BRANSON        PTSUNNY   82  68  61 W7        29.97F

$$
MOZ032>034-039>042-045>050-055>058-069>072-180000-
...CENTRAL MISSOURI...

CITY           SKY/WX    TMP DP  RH WIND       PRES   REMARKS
COLUMBIA       SUNNY     82  62  50 NW14      29.90S
JEFFERSON CITY SUNNY     82  67  60 W12       29.89S
ROLLA          MOSUNNY   80  65  59 W8        29.93F
SEDALIA        SUNNY     83  64  52 NW10      29.93S
WHITEMAN AFB   SUNNY     82  63  52 W12       29.92S
WARRENSBURG    SUNNY     81  61  50 W7        29.93S
OSAGE BEACH    SUNNY     81  65  58 W13       29.93F

$$
MOZ051-052-059>065-180000-
...EAST CENTRAL MISSOURI...

CITY           SKY/WX    TMP DP  RH WIND       PRES   REMARKS
ST LOUIS INTL  CLOUDY    85  68  56 W16       29.86F
SPIRIT OF STL  PTSUNNY   84  66  54 W12       29.86S
ST CHARLES     CLOUDY    84  64  50 W13G23    29.84S

$$
MOZ072>076-082>087-097>100-106>115-180000-
...SOUTH CENTRAL AND SOUTHEAST MISSOURI...

CITY           SKY/WX    TMP DP  RH WIND       PRES   REMARKS
CAPE GIRARDEAU MOSUNNY   81  72  74 SW8       29.88S
FARMINGTON     PTSUNNY   83  68  60 W10       29.90S
POPLAR BLUFF   MOSUNNY   82  76  81 SW7       29.89S
WEST PLAINS    PTSUNNY   80  67  64 W5        29.96S

$$


USA.gov is the U.S. government's official web portal to all federal, state and local government web resources and services.